This demonstration page uses our WeatherBlox Daily Observations layout. Learn more.

36.17497, -115.13722

Hourly Observations for January 28, 2018

Temp ( °F °C ) Dew Point ( °F °C ) Humidity (%) Winds ( mph kmh ) Pressure ( in mb ) Visibility ( mi km ) Precip ( " mm )
12:53 am 00:53 Clear 53 11.7 15 -9.4 22 22 N 10 17 30.41 1030 10 16.0934 0 0
1:53 am 01:53 Clear 54 12.2 18 -7.8 24 24 N 8 13 30.42 1030 10 16.0934 0 0
2:53 am 02:53 Clear 52 11.1 18 -7.8 26 26 N 17 28 30.41 1030 10 16.0934 0 0
3:53 am 03:53 Clear 52 11.1 19 -7.2 27 27 N 18 30 30.41 1030 10 16.0934 0 0
4:53 am 04:53 Clear 51 10.6 21 -6.1 31 31 N 14 22 30.42 1030 10 16.0934 0 0
5:53 am 05:53 Clear 52 11.1 22 -5.6 31 31 N 18 30 30.44 1031 10 16.0934 0 0
6:53 am 06:53 Sunny 51 10.6 23 -5 33 33 N 15 24 30.46 1032 10 16.0934 0 0
7:53 am 07:53 Sunny 53 11.7 24 -4.4 32 32 N 16 26 30.48 1032 10 16.0934 0 0
8:53 am 08:53 Sunny 56 13.3 25 -3.9 30 30 N 18 30 30.48 1032 10 16.0934 0 0
9:53 am 09:53 Sunny 61 16.1 26 -3.3 26 26 N 18 30 30.49 1032 10 16.0934 0 0
10:53 am 10:53 Sunny 63 17.2 26 -3.3 25 25 N 18 30 30.47 1032 10 16.0934 0 0
11:53 am 11:53 Sunny 67 19.4 26 -3.3 21 21 N 14 22 30.44 1031 10 16.0934 0 0
12:53 pm 12:53 Sunny 68 20 26 -3.3 21 21 NNW 9 15 30.41 1030 10 16.0934 0 0
1:53 pm 13:53 Sunny 70 21.1 25 -3.9 18 18 N 6 9 30.38 1029 10 16.0934 0 0
2:53 pm 14:53 Sunny 71 21.7 25 -3.9 18 18 N 12 19 30.37 1028 10 16.0934 0 0
3:53 pm 15:53 Sunny 71 21.7 25 -3.9 18 18 N 10 17 30.37 1028 10 16.0934 0 0
4:53 pm 16:53 Sunny 68 20 25 -3.9 20 20 N 10 17 30.38 1029 10 16.0934 0 0
5:53 pm 17:53 Clear 65 18.3 26 -3.3 23 23 N 7 11 30.39 1029 10 16.0934 0 0
6:53 pm 18:53 Clear 63 17.2 26 -3.3 25 25 NNW 12 19 30.4 1029 10 16.0934 0 0
7:53 pm 19:53 Clear 61 16.1 26 -3.3 26 26 N 7 11 30.41 1030 10 16.0934 0 0
8:53 pm 20:53 Clear 59 15 26 -3.3 28 28 N 9 15 30.41 1030 10 16.0934 0 0
9:53 pm 21:53 Clear 57 13.9 27 -2.8 32 32 N 10 17 30.41 1030 10 16.0934 0 0
10:53 pm 22:53 Clear 57 13.9 27 -2.8 32 32 E 7 11 30.43 1031 10 16.0934 0 0
11:53 pm 23:53 Clear 57 13.9 27 -2.8 32 32 Calm 30.43 1031 10 16.0934 0 0

Powered by AerisWeather